EW3770 Weather Reports


Display with metric or nautical units.
time (UTC)temp
F
wind
direction
speed
MPH
gust
MPH
rain 1hr
in
rain 24hr
in
rain mn
in
humidity
%
barometer
mb
20260502190924 72 153 2.0 6.0 0.00 0.00 0.00 20 1027.4
20260502190004 71 135 4.0 11.0 0.00 0.00 0.00 16 1027.4
20260502185403 71 138 3.0 11.0 0.00 0.00 0.00 17 1027.4
20260502184503 71 144 4.0 11.0 0.00 0.00 0.00 18 1027.4
20260502183603 72 26 2.0 9.0 0.00 0.00 0.00 21 1027.4
20260502182724 71 6 3.0 10.0 0.00 0.00 0.00 22 1027.4
20260502181803 71 139 3.0 15.0 0.00 0.00 0.00 23 1027.4
20260502180924 70 58 3.0 10.0 0.00 0.00 0.00 24 1027.4
20260502163603 66 155 2.0 7.0 0.00 0.00 0.00 33 1027.4
20260502162703 66 132 2.0 7.0 0.00 0.00 0.00 34 1027.4
20260502161803 65 3 2.0 8.0 0.00 0.00 0.00 32 1027.4
20260502160903 65 38 2.0 10.0 0.00 0.00 0.00 32 1027.4
20260502151803 61 1 2.0 12.0 0.00 0.00 0.00 38 1027.4
20260502150903 60 2 1.0 8.0 0.00 0.00 0.00 35 1027.4
20260502123603 50 191 0.0 1.0 0.00 0.00 0.00 55 1027.4
20260502122703 50 0 0.0 0.0 0.00 0.00 0.00 57 1027.4
20260502121824 50 0 0.0 0.0 0.00 0.00 0.00 57 1027.4
20260502120903 50 173 0.0 2.0 0.00 0.00 0.00 58 1027.4
20260502115403 50 173 0.0 1.0 0.00 0.00 0.00 58 1027.4
20260502113603 51 173 0.0 2.0 0.00 0.00 0.00 56 1027.4
20260502112703 51 173 0.0 1.0 0.00 0.00 0.00 54 1027.4
20260502111803 51 173 0.0 2.0 0.00 0.00 0.00 55 1027.4
20260502110903 51 172 0.0 4.0 0.00 0.00 0.00 52 1027.4
20260502110003 50 173 0.0 1.0 0.00 0.00 0.00 49 1027.4
20260502105424 50 175 0.0 2.0 0.00 0.00 0.00 48 1027.4
20260502104503 50 179 0.0 1.0 0.00 0.00 0.00 49 1027.4
20260502103603 50 0 0.0 0.0 0.00 0.00 0.00 50 1027.4
20260502102703 51 179 0.0 2.0 0.00 0.00 0.00 51 1027.4
20260502101803 51 216 0.0 2.0 0.00 0.00 0.00 50 1027.4
20260502100903 51 221 0.0 1.0 0.00 0.00 0.00 50 1027.4
20260502090903 51 0 0.0 0.0 0.00 0.00 0.00 44 1027.4
20260502070903 48 298 0.0 2.0 0.00 0.00 0.00 50 1027.4
20260502070004 48 298 0.0 2.0 0.00 0.00 0.00 49 1027.4
20260502065403 48 298 0.0 2.0 0.00 0.00 0.00 49 1027.4
20260502064504 48 298 0.0 2.0 0.00 0.00 0.00 49 1027.4
20260502063603 48 298 0.0 2.0 0.00 0.00 0.00 48 1027.4
20260502062703 49 0 0.0 0.0 0.00 0.00 0.00 48 1027.4
20260502061824 49 298 0.0 1.0 0.00 0.00 0.00 46 1027.4
20260502060903 50 298 0.0 1.0 0.00 0.00 0.00 46 1027.4
20260502060004 50 0 0.0 0.0 0.00 0.00 0.00 44 1027.4
20260502055424 50 0 0.0 0.0 0.00 0.00 0.00 44 1027.4
20260502054503 51 298 0.0 2.0 0.00 0.00 0.00 45 1027.4
20260502053603 51 0 0.0 0.0 0.00 0.00 0.00 44 1027.4
20260502052703 52 0 0.0 0.0 0.00 0.00 0.00 41 1027.4
20260502051803 53 0 0.0 0.0 0.00 0.00 0.00 39 1027.4
20260502050903 53 0 0.0 0.0 0.00 0.00 0.00 39 1027.4
20260502050004 53 298 0.0 1.0 0.00 0.00 0.00 40 1027.4
20260502045403 53 298 0.0 1.0 0.00 0.00 0.00 40 1027.4
20260502044504 53 298 0.0 1.0 0.00 0.00 0.00 40 1027.4
20260502043603 54 0 0.0 0.0 0.00 0.00 0.00 38 1027.4
20260502042703 55 298 0.0 1.0 0.00 0.00 0.00 36 1027.4
20260502041803 56 298 0.0 1.0 0.00 0.00 0.00 36 1027.4
20260502040903 56 0 0.0 0.0 0.00 0.00 0.00 35 1027.4
20260502040004 57 299 0.0 1.0 0.00 0.00 0.00 34 1027.4
20260502035404 57 0 0.0 0.0 0.00 0.00 0.00 35 1027.4
20260502034503 58 0 0.0 0.0 0.00 0.00 0.00 34 1027.4
20260502033603 58 0 0.0 0.0 0.00 0.00 0.00 33 1027.4
20260502032703 59 299 0.0 1.0 0.00 0.00 0.00 32 1027.4
20260502031803 60 0 0.0 0.0 0.00 0.00 0.00 31 1027.4
20260502030903 60 0 0.0 0.0 0.00 0.00 0.00 31 1027.4
20260502030004 60 299 0.0 1.0 0.00 0.00 0.00 30 1027.4
20260502025403 60 299 0.0 3.0 0.00 0.00 0.00 29 1027.4
20260502024503 61 299 0.0 2.0 0.00 0.00 0.00 28 1027.4
20260502023604 61 299 0.0 3.0 0.00 0.00 0.00 28 1027.4
20260502022724 61 304 1.0 4.0 0.00 0.00 0.00 28 1027.4
20260502021803 61 306 1.0 3.0 0.00 0.00 0.00 27 1027.4
20260502020903 62 303 2.0 7.0 0.00 0.00 0.00 27 1027.4
20260502020025 62 302 2.0 7.0 0.00 0.00 0.00 26 1027.4
20260502015403 62 312 2.0 8.0 0.00 0.00 0.00 26 1027.4
20260502014503 62 319 4.0 11.0 0.00 0.00 0.00 26 1027.4
20260502013603 63 326 4.0 10.0 0.00 0.00 0.00 26 1027.4
20260502012703 63 332 3.0 9.0 0.00 0.00 0.00 27 1027.4
20260502011803 63 324 4.0 12.0 0.00 0.00 0.00 26 1027.4
20260502010903 64 312 4.0 12.0 0.00 0.00 0.00 26 1027.4
20260502010003 64 322 5.0 13.0 0.00 0.00 0.00 26 1027.4
20260502005403 65 321 4.0 13.0 0.00 0.00 0.00 26 1027.4
20260502004503 65 316 6.0 14.0 0.00 0.00 0.00 26 1027.4
20260502003603 66 321 6.0 13.0 0.00 0.00 0.00 25 1027.4
20260502002703 66 304 4.0 10.0 0.00 0.00 0.00 24 1027.4
20260502001803 66 309 5.0 14.0 0.00 0.00 0.00 25 1027.4
20260502000903 66 300 6.0 14.0 0.00 0.00 0.00 24 1027.4
20260502000003 66 318 5.0 14.0 0.00 0.00 0.00 25 1027.4
20260501235403 66 332 5.0 14.0 0.00 0.00 0.00 25 1027.4
20260501234503 67 323 6.0 14.0 0.00 0.00 0.00 24 1027.4
20260501233603 67 322 4.0 13.0 0.00 0.00 0.00 24 1027.4
20260501232703 67 335 6.0 15.0 0.00 0.00 0.00 25 1027.4
20260501231803 67 332 3.0 12.0 0.00 0.00 0.00 25 1027.4
20260501230903 66 328 6.0 18.0 0.00 0.00 0.00 24 1027.4
20260501230003 67 15 4.0 10.0 0.00 0.00 0.00 24 1027.4
20260501225403 67 360 4.0 10.0 0.00 0.00 0.00 22 1027.4
20260501224503 67 1 4.0 11.0 0.00 0.00 0.00 24 1027.4
20260501223603 67 329 5.0 11.0 0.00 0.00 0.00 22 1027.4
20260501222703 66 15 5.0 13.0 0.00 0.00 0.00 23 1027.4
20260501221803 67 31 3.0 12.0 0.00 0.00 0.00 23 1027.4
20260501220903 66 12 3.0 11.0 0.00 0.00 0.00 24 1027.4
20260501220003 66 14 6.0 13.0 0.00 0.00 0.00 22 1027.4
20260501215403 67 340 5.0 13.0 0.00 0.00 0.00 23 1027.4
20260501214503 67 334 5.0 14.0 0.00 0.00 0.00 24 1027.4
20260501213624 67 342 2.0 9.0 0.00 0.00 0.00 23 1027.4
20260501212703 67 359 3.0 11.0 0.00 0.00 0.00 24 1027.4
20260501211803 66 32 4.0 9.0 0.00 0.00 0.00 22 1027.4
20260501210903 66 16 4.0 11.0 0.00 0.00 0.00 23 1027.4
20260501210003 68 35 2.0 10.0 0.00 0.00 0.00 22 1027.4
20260501205424 68 314 4.0 12.0 0.00 0.00 0.00 22 1027.4
20260501204503 68 331 4.0 10.0 0.00 0.00 0.00 26 1027.4
20260501203603 68 228 2.0 7.0 0.00 0.00 0.00 23 1027.4
20260501202724 66 232 0.0 5.0 0.00 0.00 0.00 25 1027.4
20260501201803 65 308 1.0 8.0 0.00 0.00 0.00 26 1027.4
20260501200924 65 326 4.0 9.0 0.00 0.00 0.00 23 1027.4
20260501200024 65 359 4.0 12.0 0.00 0.00 0.00 24 1027.4
20260501195403 66 333 3.0 11.0 0.00 0.00 0.00 26 1027.4
20260501194524 66 293 2.0 7.0 0.00 0.00 0.00 26 1027.4
20260501193603 64 333 4.0 12.0 0.00 0.00 0.00 25 1027.4
20260501192703 64 336 4.0 12.0 0.00 0.00 0.00 26 1027.4
20260501191803 64 347 4.0 10.0 0.00 0.00 0.00 26 1027.4